Content
SEND FEEDBACK

Daily
Averages
Monthly
Summary
United States of America

APPLETON CITY, MISSOURI


Home > North America > United States > Missouri
Elevation: 839 feet     Latitude: 38 12N     Longitude: 094 01W

WEATHER
 
SELECT A DAY
Number of Records: 121,843;   Date Range: 5/14/09 - 7/6/14
 
SHARE

PRINT THIS DATA

[ ← Previous Day ]
WEATHER ALMANAC - JANUARY 9, 2013
[ Next Day → ]
[ °C ]   °F
Weather ElementAverageHighLow
Temperature41.6 °F55.4 °F (2:15 pm)32 °F (6:15 am)
Dewpoint35.2 °F42.8 °F (12:15 pm)30.2 °F (10:15 pm)
Humidity81 %100 % (1:35 am)47 % (4:15 pm)
Barometer30.35 in30.42 in (9:55 am)30.22 in (12:35 am)
Wind Speed2.4 mph8.1 mph (2:35 pm)
Weather ElementAverage
Visibility5.7 mi
Wind DirectionNNE (37.4 °)

Weather ElementTotal
Precipitation---
Heating Degree Days21.3 (Base 65)
Averaged from 68 records on January 9, 2013
WEATHER CONDITIONS BREAKOUT
WIND DIRECTION BREAKOUT
WEATHER BY HOUR - JANUARY 9, 2013
[ °C ]   °F
Local TimeTemperatureDewpointHumidityBarometerVisibilityWind DirectionWind SpeedGust SpeedPrecipitationEventsConditions
12:35 AM42.8 °F39.2 °F87 %30.22 in9.0 miSW (220°)6.9 mphScattered Clouds
12:55 AM42.8 °F41.0 °F93 %30.23 in8.0 miSW (220°)6.9 mphClear
1:15 AM41.0 °F39.2 °F93 %30.23 in5.0 miCalmClear
1:35 AM39.2 °F39.2 °F100 %30.25 in5.0 miCalmClear
1:55 AM39.2 °F39.2 °F100 %30.25 in3.0 miSW (220°)6.9 mphMostly Cloudy
2:15 AM41.0 °F41.0 °F100 %30.26 in0.2 miSSW (210°)5.8 mphFogFog
2:35 AM39.2 °F39.2 °F100 %30.26 in0.2 miCalmFogFog
2:55 AM39.2 °F39.2 °F100 %30.26 in0.2 miCalmFogFog
3:15 AM37.4 °F37.4 °F100 %30.27 in0.2 miCalmFogFog
3:35 AM37.4 °F37.4 °F100 %30.28 in0.2 miCalmFogFog
3:55 AM37.4 °F37.4 °F100 %30.27 in0.2 miCalmFogFog
4:15 AM35.6 °F35.6 °F100 %30.27 in0.2 miCalmFogFog
4:35 AM35.6 °F35.6 °F100 %30.28 in0.2 miCalmFogFog
4:55 AM35.6 °F35.6 °F100 %30.29 in0.2 miCalmFogFog
5:15 AM33.8 °F33.8 °F100 %30.29 in0.2 miCalmFogFog
5:35 AM33.8 °F33.8 °F100 %30.30 in0.2 miCalmFogFog
5:55 AM33.8 °F33.8 °F100 %30.31 in0.2 miCalmOvercast
6:15 AM32.0 °F32.0 °F100 %30.32 in0.2 miCalmFogFog
6:35 AM32.0 °F32.0 °F100 %30.32 in0.2 miCalmFogFog
6:55 AM32.0 °F32.0 °F100 %30.33 in0.2 miCalmFogFog
7:15 AM32.0 °F32.0 °F100 %30.35 in0.2 miCalmFogLight Freezing Fog
7:35 AM32.0 °F32.0 °F100 %30.36 in0.2 miCalmFogLight Freezing Fog
7:55 AM32.0 °F32.0 °F100 %30.37 in0.2 miCalmFogLight Freezing Fog
8:15 AM32.0 °F32.0 °F100 %30.38 in0.2 miCalmFogLight Freezing Fog
8:35 AM32.0 °F32.0 °F100 %30.40 in1.8 miCalmClear
8:55 AM32.0 °F32.0 °F100 %30.41 in1.5 miCalmScattered Clouds
9:15 AM32.0 °F32.0 °F100 %30.41 in2.0 miCalmMostly Cloudy
9:35 AM33.8 °F33.8 °F100 %30.41 in3.0 miCalmPartly Cloudy
9:55 AM35.6 °F35.6 °F100 %30.42 in3.0 miCalmScattered Clouds
10:15 AM35.6 °F35.6 °F100 %30.42 in3.0 miCalmMostly Cloudy
10:35 AM37.4 °F37.4 °F100 %30.42 in2.0 miCalmOvercast
10:55 AM37.4 °F37.4 °F100 %30.42 in1.5 miCalmOvercast
11:15 AM39.2 °F39.2 °F100 %30.41 in3.0 miCalmMostly Cloudy
11:55 AM41.0 °F41.0 °F100 %30.40 in5.0 miCalmPartly Cloudy
12:15 PM42.8 °F42.8 °F100 %30.39 in8.0 miCalmClear
12:35 PM44.6 °F42.8 °F93 %30.38 in7.0 miCalmClear
12:55 PM48.2 °F41.0 °F76 %30.38 in8.0 miCalmClear
1:15 PM50.0 °F39.2 °F66 %30.38 in9.0 miCalmClear
1:35 PM51.8 °F39.2 °F62 %30.38 in9.0 miCalmClear
1:55 PM53.6 °F39.2 °F58 %30.38 in10.0 miCalmClear
2:15 PM55.4 °F37.4 °F51 %30.37 in9.0 miENE (60°)5.8 mphClear
2:35 PM55.4 °F37.4 °F51 %30.38 in10.0 miENE (60°)8.1 mphClear
2:55 PM55.4 °F37.4 °F51 %30.38 in10.0 miENE (60°)4.6 mphClear
3:15 PM55.4 °F37.4 °F51 %30.39 in9.0 miEast (80°)3.5 mphClear
3:35 PM55.4 °F39.2 °F54 %30.39 in10.0 miCalmClear
3:55 PM55.4 °F37.4 °F51 %30.39 in10.0 miENE (60°)5.8 mphClear
4:15 PM55.4 °F35.6 °F47 %30.38 in10.0 miNE (50°)3.5 mphClear
4:35 PM53.6 °F35.6 °F51 %30.39 in10.0 miCalmClear
5:15 PM50.0 °F33.8 °F54 %30.39 in10.0 miEast (80°)3.5 mphClear
5:35 PM46.4 °F33.8 °F62 %30.39 in10.0 miCalmClear
5:55 PM44.6 °F32.0 °F61 %30.40 in10.0 miEast (80°)3.5 mphClear
6:15 PM44.6 °F32.0 °F61 %30.40 in10.0 miCalmClear
6:35 PM44.6 °F32.0 °F61 %30.39 in10.0 miENE (60°)3.5 mphClear
6:55 PM44.6 °F32.0 °F61 %30.39 in10.0 miNE (50°)6.9 mphClear
7:15 PM44.6 °F32.0 °F61 %30.38 in10.0 miENE (60°)6.9 mphClear
7:35 PM42.8 °F32.0 °F66 %30.39 in10.0 miEast (90°)4.6 mphClear
7:55 PM42.8 °F32.0 °F66 %30.39 in10.0 miENE (70°)5.8 mphClear
8:35 PM42.8 °F32.0 °F66 %30.39 in10.0 miEast (80°)4.6 mphClear
8:55 PM42.8 °F32.0 °F66 %30.40 in10.0 miENE (70°)4.6 mphClear
9:15 PM42.8 °F32.0 °F66 %30.40 in10.0 miEast (80°)8.1 mphClear
9:35 PM42.8 °F32.0 °F66 %30.38 in10.0 miENE (60°)8.1 mphClear
9:55 PM42.8 °F32.0 °F66 %30.37 in10.0 miEast (80°)8.1 mphClear
10:15 PM42.8 °F30.2 °F61 %30.37 in10.0 miEast (90°)6.9 mphClear
10:35 PM42.8 °F30.2 °F61 %30.37 in10.0 miENE (70°)8.1 mphClear
10:55 PM41.0 °F30.2 °F65 %30.36 in10.0 miENE (60°)6.9 mphClear
11:15 PM39.2 °F30.2 °F70 %30.36 in10.0 miEast (80°)4.6 mphClear
11:35 PM41.0 °F30.2 °F65 %30.35 in10.0 miENE (70°)6.9 mphClear
11:55 PM42.8 °F32.0 °F66 %30.35 in10.0 miENE (70°)6.9 mphClear
Hourly data recorded from KGLY, located miles away from Appleton City, Missouri







STORIES FROM OUR PARTNERS